Location: Harburg
(48.7667°N, 10.6667°E)
Time: 08:27:29
(UTC+00:00)

Cosmos 2263 Rocket - Pass Details

Date: 18 September 2020
Orbit: 822 x 850 km, 71.0° (Epoch: 27 October)

Event Time Altitude Azimuth Distance (km) Brightness Sun altitude
Rises 17:47:46 0° 191° (S) 3,343 5.4 -4.9°
Reaches altitude 10° 17:50:14 10° 187° (S) 2,416 4.6 -5.3°
Maximum altitude 17:55:36 54° 111° (ESE) 1,002 2.3 -6.2°
Drops below altitude 10° 18:01:01 10° 36° (NE) 2,445 4.4 -7.0°
Sets 18:03:31 0° 32° (NNE) 3,386 5.1 -7.5°
